Content
SEND FEEDBACK

Australia Flag

WAGGA, NEW SOUTH WALES


Home > Oceania > Australia > New South Wales
Elevation: 725 feet     Latitude: 35 10S     Longitude: 147 28E

WEATHER
 
SELECT A DAY
Number of Records: 200,708;   Date Range: 2/21/03 - 3/22/16
 
SHARE

PRINT THIS DATA

[ ← Previous Day ]
WEATHER ALMANAC - FEBRUARY 12, 2013
[ Next Day → ]
[ °C ]   °F
Weather ElementAverageHighLow
Temperature77.4 °F91.4 °F (4:00 pm)62.6 °F (6:00 am)
Dewpoint50.6 °F54 °F (2:00 am)42.8 °F (4:00 pm)
Humidity40.2 %72 % (6:00 am)11 % (5:00 pm)
Barometer30.02 in30.09 in (9:00 am)29.94 in (5:00 pm)
Wind Speed12.3 mph26.5 mph (11:00 pm)
Wind Gust34.5 mph (11:16 pm)
Weather ElementAverage
Visibility11.1 mi
Wind DirectionE (91.5 °)

Weather ElementTotal
Precipitation---
Cooling Degree Days12 (Base 65)
Growing Degree Days27 (Base 50)
Averaged from 41 records on February 12, 2013
WEATHER CONDITIONS BREAKOUT
WIND DIRECTION BREAKOUT
WEATHER BY HOUR - FEBRUARY 12, 2013
[ °C ]   °F
Local TimeTemperatureDewpointHumidityBarometerVisibilityWind DirectionWind SpeedGust SpeedPrecipitationEventsConditions
12:00 AM68.0 °F53.6 °F60 %30.04 in6.2 miENE (60°)12.7 mph
1:00 AM66.2 °F53.6 °F64 %30.04 in6.2 miENE (60°)10.4 mph
2:00 AM65.0 °F54.0 °F59 %30.03 inENE (70°)9.2 mph
2:00 AM66.2 °F53.6 °F64 %30.04 in6.2 miENE (70°)9.2 mph
3:00 AM64.4 °F53.6 °F68 %30.04 in6.2 miENE (60°)10.4 mph
3:00 AM65.0 °F54.0 °F58 %30.03 inENE (60°)10.4 mph
4:00 AM64.4 °F53.6 °F68 %30.04 in6.2 miEast (80°)11.5 mph
5:00 AM64.0 °F53.0 °F58 %30.03 inEast (90°)15.0 mph
5:00 AM64.4 °F53.6 °F68 %30.04 in6.2 miEast (90°)15.0 mph
6:00 AM62.6 °F53.6 °F72 %30.04 inEast (100°)13.8 mphClear
6:00 AM63.0 °F53.0 °F60 %30.03 in19.0 miEast (100°)13.8 mphPartly Cloudy
7:00 AM64.4 °F51.8 °F64 %30.06 inEast (100°)13.8 mphClear
8:00 AM67.0 °F52.0 °F49 %30.05 inEast (100°)16.1 mph
8:00 AM66.2 °F51.8 °F60 %30.06 inEast (100°)16.1 mphClear
9:00 AM69.8 °F51.8 °F53 %30.09 inEast (90°)18.4 mphClear
10:00 AM75.2 °F53.6 °F47 %30.09 inEast (80°)12.7 mphClear
11:00 AM79.0 °F53.0 °F30 %30.07 inENE (60°)10.4 mph
11:00 AM78.8 °F53.6 °F42 %30.09 inENE (60°)10.4 mphClear
12:00 PM82.0 °F53.0 °F27 %30.05 in19.0 miNE (50°)9.2 mphPartly Cloudy
12:00 PM82.4 °F53.6 °F37 %30.06 inNE (50°)9.2 mphClear
1:00 PM84.2 °F53.6 °F35 %30.04 in6.2 miENE (60°)12.7 mph
2:00 PM89.0 °F52.0 °F18 %29.99 inEast (100°)8.1 mph
2:00 PM89.6 °F51.8 °F27 %30.01 in6.2 miEast (100°)8.1 mph
3:00 PM90.0 °F46.0 °F13 %29.98 in19.0 miWNW (290°)3.5 mphPartly Cloudy
3:00 PM89.6 °F46.4 °F22 %30.01 inWNW (290°)3.5 mphClear
4:00 PM91.4 °F42.8 °F18 %29.98 inWSW (240°)8.1 mphClear
5:00 PM91.4 °F44.6 °F20 %29.95 inESE (120°)6.9 mphClear
5:00 PM91.0 °F44.0 °F11 %29.94 inESE (120°)6.9 mph
6:00 PM91.0 °F44.0 °F12 %29.94 in19.0 miNE (40°)3.5 mphPartly Cloudy
6:00 PM91.4 °F44.6 °F20 %29.95 inNE (40°)3.5 mphClear
7:00 PM89.6 °F44.6 °F21 %29.95 inESE (120°)1.2 mphClear
8:00 PM86.0 °F46.4 °F25 %29.95 inNE (40°)4.6 mphClear
8:00 PM87.0 °F46.0 °F15 %29.94 inNE (40°)4.6 mph
8:33 PM84.2 °F42.8 °F23 %29.98 inEast (100°)17.3 mph28.8 mphClear
9:00 PM82.0 °F50.0 °F22 %29.98 in19.0 miENE (70°)23.0 mphPartly Cloudy
9:00 PM82.4 °F50.0 °F32 %30.01 inENE (70°)23.0 mphClear
9:01 PM82.4 °F50.0 °F32 %30.01 inENE (70°)21.9 mph33.4 mphClear
10:00 PM78.8 °F51.8 °F39 %30.01 inENE (70°)21.9 mphClear
11:00 PM74.0 °F54.0 °F39 %30.02 inEast (80°)26.5 mph
11:00 PM75.2 °F53.6 °F47 %30.04 inEast (80°)26.5 mphClear
11:16 PM73.4 °F53.6 °F50 %30.04 inEast (80°)23.0 mph34.5 mphClear
Hourly data recorded from YSWG, located miles away from Wagga, New South Wales




STORIES FROM OUR PARTNERS